Location: Goettingen
(51.5300°N, 9.9433°E)
Time: 04:23:04
(UTC+01:00)

ISS - Pass Details

Date: 11 March 2026
Orbit: 417 x 426 km, 51.6° (Epoch: 16 March)

Event Time Altitude Azimuth Distance (km) Brightness Sun altitude
Rises 19:41:56 0° 201° (SSW) 2,371 0.2 -13.8°
Reaches altitude 10° 19:44:40 10° 177° (S) 1,509 -1.1 -14.2°
Enters shadow 19:45:46 14° 159° (SSE) 1,303 -1.6 -14.4°
